Location: Roc des P�zouls
(43.9667°N, 3.5500°E)
Time: 07:30:52
(UTC+00:00)

Cosmos 1980 Rocket - Pass Details

Date: 14 November 2019
Orbit: 828 x 851 km, 71.0° (Epoch: 12 December)

Event Time Altitude Azimuth Distance (km) Brightness Sun altitude
Exits shadow 05:44:18 10° 310° (NW) 2,504 4.1 -10.0°
Reaches altitude 10° 05:44:22 10° 310° (NW) 2,485 4.1 -10.0°
Maximum altitude 05:48:46 24° 259° (WSW) 1,710 3.3 -9.3°
Drops below altitude 10° 05:53:09 10° 208° (SSW) 2,465 4.5 -8.5°
Sets 05:56:01 0° 194° (SSW) 3,392 5.4 -8.0°
